• In Uzbekistan
  • List of Countries
  • For 7 days
  • Water Temperature
  • Satellite Maps
  • Weather Map
  • Weather Widgets
  • user-avatar
    Login

    Hourly Weather Akhaltsikhe

    Today, 21 September, Thursday

    Time Temperature Precipitation Wind Pressure Humidity
    00:00 +17°C° 0 mm 2 mps 652 mmHg 52%
    01:00 +17°C° 0 mm 2 mps 652 mmHg 51%
    02:00 +17°C° 0 mm 2 mps 651 mmHg 49%
    03:00 +17°C° 0 mm 3 mps 651 mmHg 58%
    04:00 +17°C° 0 mm 3 mps 651 mmHg 57%
    05:00 +17°C° 0 mm 2 mps 651 mmHg 56%
    06:00 +16°C° 0 mm 2 mps 651 mmHg 55%
    07:00 +19°C° 0 mm 2 mps 651 mmHg 49%
    08:00 +23°C° 0 mm 2 mps 652 mmHg 44%
    09:00 +25°C° 0 mm 2 mps 652 mmHg 38%
    10:00 +27°C° 0 mm 2 mps 653 mmHg 33%
    11:00 +29°C° 0 mm 2 mps 653 mmHg 29%
    12:00 +31°C° 0 mm 2 mps 653 mmHg 25%
    13:00 +31°C° 0 mm 2 mps 653 mmHg 25%
    14:00 +30°C° 0 mm 2 mps 652 mmHg 26%
    15:00 +30°C° 0 mm 2 mps 652 mmHg 26%
    16:00 +28°C° 0.1 mm 2 mps 651 mmHg 34%
    17:00 +26°C° 0.1 mm 2 mps 650 mmHg 42%
    18:00 +23°C° 0.1 mm 2 mps 650 mmHg 50%
    19:00 +21°C° 0.1 mm 2 mps 650 mmHg 52%
    20:00 +20°C° 0.1 mm 2 mps 650 mmHg 54%
    21:00 +19°C° 0.1 mm 2 mps 650 mmHg 57%
    22:00 +19°C° 0 mm 2 mps 650 mmHg 59%
    23:00 +18°C° 0 mm 2 mps 650 mmHg 60%

    Tomorrow, 22 September, Friday

    Time Temperature Precipitation Wind Pressure Humidity
    00:00 +17°C° 0 mm 2 mps 650 mmHg 62%
    01:00 +17°C° 0 mm 3 mps 650 mmHg 63%
    02:00 +17°C° 0 mm 3 mps 649 mmHg 64%
    03:00 +16°C° 0 mm 3 mps 649 mmHg 66%
    04:00 +16°C° 0 mm 3 mps 649 mmHg 65%
    05:00 +16°C° 0 mm 3 mps 649 mmHg 65%
    06:00 +14°C° 0 mm 3 mps 649 mmHg 65%
    07:00 +18°C° 0 mm 3 mps 649 mmHg 57%
    08:00 +21°C° 0 mm 3 mps 650 mmHg 49%
    09:00 +25°C° 0 mm 3 mps 650 mmHg 41%
    10:00 +26°C° 0 mm 2 mps 651 mmHg 36%
    11:00 +28°C° 0 mm 2 mps 651 mmHg 31%
    12:00 +30°C° 0 mm 2 mps 651 mmHg 26%
    13:00 +29°C° 0 mm 2 mps 651 mmHg 28%
    14:00 +29°C° 0 mm 2 mps 651 mmHg 30%
    15:00 +28°C° 0 mm 3 mps 651 mmHg 32%
    16:00 +26°C° 0.2 mm 2 mps 650 mmHg 44%
    17:00 +23°C° 0.2 mm 2 mps 650 mmHg 55%
    18:00 +20°C° 0.2 mm 2 mps 649 mmHg 66%
    19:00 +19°C° 0.2 mm 1 mps 650 mmHg 73%
    20:00 +18°C° 0.2 mm 1 mps 650 mmHg 81%
    21:00 +16°C° 0.2 mm 1 mps 650 mmHg 88%
    22:00 +16°C° 0.1 mm 1 mps 650 mmHg 90%
    23:00 +15°C° 0.1 mm 1 mps 650 mmHg 91%

    Day after tomorrow, 23 September, Saturday

    Time Temperature Precipitation Wind Pressure Humidity
    00:00 +15°C° 0.1 mm 1 mps 651 mmHg 93%
    01:00 +15°C° 0 mm 1 mps 651 mmHg 93%
    02:00 +15°C° 0 mm 1 mps 650 mmHg 92%
    03:00 +15°C° 0 mm 1 mps 650 mmHg 92%
    04:00 +14°C° 0 mm 1 mps 650 mmHg 91%
    05:00 +14°C° 0 mm 1 mps 650 mmHg 89%
    06:00 +14°C° 0 mm 1 mps 650 mmHg 88%
    07:00 +16°C° 0 mm 1 mps 651 mmHg 78%
    08:00 +19°C° 0 mm 1 mps 651 mmHg 67%
    09:00 +22°C° 0 mm 1 mps 652 mmHg 57%
    10:00 +23°C° 0 mm 1 mps 652 mmHg 51%
    11:00 +25°C° 0 mm 1 mps 652 mmHg 45%
    12:00 +27°C° 0 mm 1 mps 653 mmHg 39%
    13:00 +26°C° 0.4 mm 2 mps 652 mmHg 43%
    14:00 +25°C° 0.4 mm 3 mps 652 mmHg 47%
    15:00 +24°C° 0.4 mm 3 mps 652 mmHg 51%
    16:00 +21°C° 0.9 mm 3 mps 652 mmHg 62%
    17:00 +19°C° 0.9 mm 2 mps 651 mmHg 73%
    18:00 +17°C° 0.9 mm 2 mps 651 mmHg 84%
    19:00 +17°C° 1.8 mm 2 mps 652 mmHg 88%
    20:00 +16°C° 1.8 mm 2 mps 652 mmHg 91%
    21:00 +15°C° 1.8 mm 1 mps 652 mmHg 94%
    22:00 +15°C° 0.3 mm 1 mps 653 mmHg 95%
    23:00 +15°C° 0.3 mm 1 mps 653 mmHg 96%

    24 September, Sunday

    Time Temperature Precipitation Wind Pressure Humidity
    00:00 +15°C° 0.3 mm 1 mps 653 mmHg 96%
    01:00 +14°C° 0 mm 1 mps 653 mmHg 96%
    02:00 +14°C° 0 mm 1 mps 653 mmHg 96%
    03:00 +14°C° 0 mm 1 mps 653 mmHg 96%
    04:00 +14°C° 0 mm 1 mps 653 mmHg 96%
    05:00 +14°C° 0 mm 1 mps 653 mmHg 96%
    06:00 +13°C° 0 mm 0 mps 653 mmHg 96%
    07:00 +15°C° 0 mm 1 mps 653 mmHg 89%
    08:00 +18°C° 0 mm 1 mps 654 mmHg 82%
    09:00 +19°C° 0 mm 1 mps 654 mmHg 75%
    10:00 +20°C° 0 mm 1 mps 654 mmHg 70%
    11:00 +21°C° 0 mm 1 mps 654 mmHg 64%
    12:00 +22°C° 0 mm 1 mps 654 mmHg 58%
    13:00 +21°C° 0 mm 2 mps 654 mmHg 58%
    14:00 +21°C° 0 mm 2 mps 654 mmHg 58%
    15:00 +21°C° 0 mm 2 mps 654 mmHg 57%
    16:00 +20°C° 0.1 mm 2 mps 654 mmHg 66%
    17:00 +18°C° 0.1 mm 2 mps 653 mmHg 75%
    18:00 +18°C° 0.1 mm 1 mps 653 mmHg 84%
    19:00 +16°C° 0.1 mm 1 mps 653 mmHg 88%
    20:00 +15°C° 0.1 mm 1 mps 653 mmHg 91%
    21:00 +14°C° 0.1 mm 1 mps 653 mmHg 95%
    22:00 +14°C° 0 mm 1 mps 653 mmHg 94%
    23:00 +14°C° 0 mm 1 mps 653 mmHg 93%

    25 September, Monday

    Time Temperature Precipitation Wind Pressure Humidity
    00:00 +14°C° 0 mm 1 mps 653 mmHg 92%
    01:00 +13°C° 0 mm 1 mps 653 mmHg 91%
    02:00 +13°C° 0 mm 1 mps 653 mmHg 89%
    03:00 +13°C° 0 mm 1 mps 652 mmHg 87%
    04:00 +13°C° 0 mm 1 mps 652 mmHg 85%
    05:00 +13°C° 0 mm 1 mps 652 mmHg 83%
    06:00 +12°C° 0 mm 1 mps 652 mmHg 80%
    07:00 +15°C° 0 mm 1 mps 653 mmHg 70%
    08:00 +18°C° 0 mm 1 mps 653 mmHg 59%
    09:00 +21°C° 0 mm 1 mps 654 mmHg 49%
    10:00 +23°C° 0 mm 1 mps 654 mmHg 44%
    11:00 +24°C° 0 mm 1 mps 654 mmHg 38%
    12:00 +26°C° 0 mm 1 mps 654 mmHg 33%
    13:00 +26°C° 0 mm 2 mps 654 mmHg 33%
    14:00 +26°C° 0 mm 2 mps 654 mmHg 32%
    15:00 +26°C° 0 mm 2 mps 653 mmHg 32%
    16:00 +24°C° 0 mm 2 mps 653 mmHg 41%
    17:00 +20°C° 0 mm 2 mps 652 mmHg 50%
    18:00 +19°C° 0 mm 1 mps 651 mmHg 59%
    19:00 +18°C° 0 mm 1 mps 652 mmHg 61%
    20:00 +16°C° 0 mm 2 mps 652 mmHg 63%
    21:00 +15°C° 0 mm 2 mps 652 mmHg 65%
    22:00 +15°C° 0 mm 2 mps 651 mmHg 65%
    23:00 +15°C° 0 mm 2 mps 651 mmHg 65%

    26 September, Tuesday

    Time Temperature Precipitation Wind Pressure Humidity
    00:00 +14°C° 0 mm 2 mps 651 mmHg 65%
    01:00 +14°C° 0 mm 2 mps 651 mmHg 66%
    02:00 +14°C° 0 mm 2 mps 651 mmHg 66%
    03:00 +13°C° 0 mm 2 mps 650 mmHg 67%
    04:00 +13°C° 0 mm 2 mps 650 mmHg 67%
    05:00 +13°C° 0 mm 2 mps 650 mmHg 67%
    06:00 +13°C° 0 mm 2 mps 650 mmHg 67%
    07:00 +14°C° 0 mm 3 mps 651 mmHg 60%
    08:00 +17°C° 0 mm 3 mps 651 mmHg 53%
    09:00 +20°C° 0 mm 3 mps 651 mmHg 46%
    10:00 +22°C° 0 mm 3 mps 652 mmHg 41%
    11:00 +24°C° 0 mm 3 mps 652 mmHg 36%
    12:00 +26°C° 0 mm 3 mps 652 mmHg 31%
    13:00 +26°C° 0 mm 2 mps 652 mmHg 33%
    14:00 +26°C° 0 mm 2 mps 651 mmHg 34%
    15:00 +26°C° 0 mm 2 mps 651 mmHg 35%
    16:00 +23°C° 0.1 mm 2 mps 650 mmHg 45%
    17:00 +20°C° 0.1 mm 2 mps 650 mmHg 55%
    18:00 +19°C° 0.1 mm 1 mps 649 mmHg 66%
    19:00 +18°C° 0.1 mm 1 mps 649 mmHg 71%
    20:00 +16°C° 0.1 mm 1 mps 650 mmHg 76%
    21:00 +15°C° 0.1 mm 1 mps 650 mmHg 81%
    22:00 +14°C° 0.1 mm 1 mps 649 mmHg 83%
    23:00 +14°C° 0.1 mm 1 mps 649 mmHg 85%
    Show more